Hourly Data Report for September 14, 2017

All times are specified in Local Standard Time (LST). Add 1 hour to adjust for Daylight Saving Time where and when it is observed.

KITCHENER/WATERLOO
ONTARIO

43°27'39.000" N
80°22'43.000" W
321.60 m
6144239
71368
YKF

Download Data

Hourly Data (September 2017)
Hourly Data Report for September 14, 2017
Temp Definition
°C
Dew Point Temp Definition
°C
Rel Hum Definition
%
Wind Dir Definition
10's deg

Wind Spd Definition
km/h
Visibility Definition
km
Stn Press Definition
kPa
Hmdx Definition


Wind Chill Definition


Weather Definition


TIME
00:00 Legend Double Dagger 13.6 13.5 99 31 8 4.8 97.20     Fog
01:00 Legend Double Dagger 16.2 15.6 96 31 8 16.1 97.20     LegendNANA
02:00 Legend Double Dagger 16.0 15.2 95 31 5 16.1 97.20     LegendNANA
03:00 Legend Double Dagger 15.3 14.6 96 LegendMM 4 11.3 97.21     LegendNANA
04:00 Legend Double Dagger 14.7 14.6 99 16 5 2.8 97.26     Fog
05:00 Legend Double Dagger 13.7 13.4 98 LegendMM 4 4.0 97.30     Fog
06:00 Legend Double Dagger 13.7 13.6 99   0 2.0 97.33     Fog
07:00 Legend Double Dagger 15.1 15.0 99 33 5 6.4 97.39     Fog
08:00 Legend Double Dagger 17.7 16.6 93 30 5 9.7 97.41     Fog
09:00 Legend Double Dagger 20.5 16.8 79 31 9 16.1 97.45 26   LegendNANA
10:00 Legend Double Dagger 20.7 16.8 78 30 13 16.1 97.46 26   LegendNANA
11:00 Legend Double Dagger 22.7 16.5 67 26 18 16.1 97.45 28   LegendNANA
12:00 Legend Double Dagger 22.7 15.9 65 25 13 16.1 97.44 27   LegendNANA
13:00 Legend Double Dagger 23.7 16.5 64 27 13 16.1 97.45 29   LegendNANA
14:00 Legend Double Dagger 23.9 15.9 60 28 9 16.1 97.45 28   LegendNANA
15:00 Legend Double Dagger 25.3 16.4 57 30 13 16.1 97.44 30   LegendNANA
16:00 Legend Double Dagger 23.7 16.2 62 31 11 16.1 97.44 28   LegendNANA
17:00 Legend Double Dagger 23.7 16.6 64 32 11 16.1 97.48 29   LegendNANA
18:00 Legend Double Dagger 22.1 16.1 68 30 13 16.1 97.54 27   LegendNANA
19:00 Legend Double Dagger 19.8 15.9 78 30 9 16.1 97.61     LegendNANA
20:00 Legend Double Dagger 16.6 14.9 90 30 5 16.1 97.68     LegendNANA
21:00 Legend Double Dagger 16.4 14.7 90 20 5 16.1 97.72     LegendNANA
22:00 Legend Double Dagger 15.0 14.1 94 22 5 16.1 97.77     LegendNANA
23:00 Legend Double Dagger 15.0 13.9 93 28 5 16.1 97.79     LegendNANA

Notes on Data Quality.

Legend

  • E = Estimated
  • M = Missing
  • NA = Not Available
  • ‡ = Partner data that is not subject to review by the National Climate Archives
Date modified: